GEFSMA_500_meanwind_222.txt.gz
Wind_Speed
29 29 29 30 30 30 31 31 31 32 32 32 33 34 34 35 36 36 37 37 38 39 40 40 41 42 43 43 44 44 45 46 46 47 47 47 47 47 47 47 47 46 46
30 31 31 31 31 31 32 33 33 33 33 34 34 35 35 36 37 38 39 39 40 41 42 42 43 43 44 45 46 47 47 48 49 49 49 49 49 50 50 50 50 49 49
32 32 32 32 33 33 34 34 34 34 35 35 36 36 37 38 39 40 41 41 42 43 44 44 45 46 47 48 48 49 50 50 51 51 51 51 51 52 52 52 52 52 52
33 33 33 33 34 35 35 35 35 35 36 37 37 38 39 40 41 42 42 43 44 45 46 47 48 49 50 51 51 51 52 53 54 54 54 54 54 54 54 54 55 55 54
33 34 34 34 35 36 36 37 37 37 38 39 39 40 41 42 42 43 44 44 45 46 47 48 49 50 51 52 53 53 54 55 55 56 57 57 57 57 57 57 57 58 57
34 34 35 35 36 37 37 38 38 39 40 40 41 41 42 42 43 44 45 46 47 48 49 50 51 51 52 53 54 55 55 56 57 58 59 60 60 60 61 60 60 59 59
35 35 35 36 37 37 38 39 39 40 41 42 42 42 43 43 44 45 47 48 49 50 51 52 52 53 53 54 55 56 57 58 58 59 61 62 62 62 62 61 61 61 61
35 35 36 37 38 38 39 40 41 41 42 43 43 44 44 44 46 47 48 49 50 51 52 53 54 55 55 55 57 58 58 58 59 60 61 62 62 62 62 62 63 63 63
36 36 37 37 38 39 40 41 42 43 43 44 45 46 47 47 47 47 48 49 51 52 53 54 55 56 56 57 57 58 58 59 59 59 59 60 61 63 63 63 64 65 65
36 37 37 38 39 40 41 42 43 44 45 45 46 48 49 50 50 49 49 50 52 52 53 54 55 56 57 58 59 59 61 60 60 59 60 61 61 62 64 65 65 64 65
37 38 38 39 41 42 43 44 45 46 46 47 49 50 51 51 52 52 51 51 52 52 53 54 55 56 57 59 60 61 61 60 60 60 61 61 61 62 63 63 64 65 64
38 39 40 41 42 43 44 45 46 47 48 49 50 51 52 53 53 54 54 53 52 52 53 55 56 57 59 60 60 59 59 59 59 60 60 61 61 62 62 62 63 63 63
40 41 42 43 44 45 45 46 47 48 49 50 51 52 53 53 54 54 55 55 54 53 54 55 57 58 59 60 59 59 58 58 58 59 60 61 61 61 62 62 62 61 61
42 43 44 45 45 46 46 47 48 48 50 51 51 52 52 53 54 55 57 57 57 55 55 55 57 58 59 59 58 59 59 59 59 59 59 60 60 60 60 59 59 58 57
43 44 45 46 46 47 47 48 48 49 50 51 52 53 53 53 55 56 57 58 59 58 56 55 56 56 57 57 58 59 58 58 57 56 56 57 57 57 57 56 56 54 54
44 45 46 46 47 47 48 48 49 50 51 52 53 53 53 54 56 57 58 59 60 60 59 56 55 55 55 56 57 57 56 54 53 53 54 54 54 53 53 53 53 52 53
44 44 45 46 47 47 48 49 50 51 51 52 53 53 54 55 55 56 57 58 58 59 59 56 54 53 54 54 54 54 52 52 51 51 51 51 50 49 49 49 50 50 51
43 44 45 46 47 48 49 50 50 51 51 52 52 53 54 55 55 56 56 57 57 57 57 54 52 52 52 52 51 50 50 49 49 49 49 48 47 47 46 45 46 47 48
44 44 46 47 47 48 49 49 50 50 51 52 52 53 53 54 54 54 55 55 55 55 54 53 51 51 50 50 49 48 47 46 46 47 45 45 45 44 43 43 42 42 43
44 45 46 47 47 48 48 49 49 50 51 51 51 51 52 52 52 52 53 53 53 52 52 51 50 49 49 48 48 46 44 43 43 43 42 42 41 40 39 37 37 37 37
44 46 46 46 46 47 48 48 49 49 50 50 50 50 50 50 50 51 51 50 50 50 49 49 47 46 45 44 44 43 41 40 39 39 38 37 35 33 32 32 31 30 30
45 45 45 45 46 47 47 48 48 48 48 48 48 48 48 48 48 48 48 48 48 48 47 46 45 44 43 42 41 40 39 37 36 35 34 31 29 29 28 27 26 25 25
44 44 44 44 45 46 47 47 47 47 47 47 46 46 47 47 47 47 47 47 47 47 46 44 43 42 40 39 39 37 36 35 33 31 29 28 27 26 24 22 20 20 20
43 44 43 43 44 45 46 46 46 46 46 45 45 46 46 47 47 46 46 45 44 42 42 42 41 39 38 37 37 36 34 32 29 27 27 26 25 23 20 18 17 17 17
42 43 43 43 44 45 45 45 45 44 43 43 44 45 45 46 46 45 44 42 40 40 40 39 38 37 36 35 34 33 30 27 26 26 26 25 22 19 16 15 14 13 13
41 41 42 43 43 44 44 44 43 43 42 42 43 44 45 45 44 42 41 39 39 38 37 35 34 33 33 31 30 28 26 25 24 24 23 21 19 16 15 14 14 12 12

GEFSMA_500_meanwind_228.txt.gz
Wind_Speed
27 27 27 27 27 28 28 29 29 29 30 31 31 32 33 33 33 34 34 35 35 36 36 37 38 39 40 40 40 41 42 43 43 44 45 45 45 46 46 45 46 46 46
28 28 28 29 29 29 30 30 30 31 31 32 33 34 34 35 35 35 36 36 37 37 38 39 39 40 41 41 42 43 44 45 45 46 46 47 47 47 48 48 48 49 49
30 29 30 30 31 31 31 32 32 33 33 34 35 36 36 36 37 37 37 38 38 39 39 40 41 42 42 43 44 45 46 47 47 48 48 49 50 50 51 51 51 51 51
31 31 31 32 33 33 33 33 33 34 34 35 36 37 37 37 38 38 38 39 40 41 41 42 43 44 45 46 47 48 49 49 49 50 50 51 52 53 54 54 54 54 53
32 32 33 33 34 34 34 34 34 35 36 36 37 37 38 38 39 39 40 40 41 42 43 44 45 46 47 48 49 50 50 51 52 52 53 53 54 55 55 55 56 57 56
33 33 33 33 34 34 35 35 35 36 37 37 38 38 38 39 40 40 41 42 43 44 45 46 47 48 49 50 51 52 52 52 53 54 54 55 55 56 56 56 57 58 59
34 35 35 34 34 35 35 35 36 36 38 38 38 38 38 39 40 41 42 43 44 46 47 48 49 50 51 52 53 53 53 54 54 54 55 55 56 57 57 58 59 60 61
35 35 35 35 35 36 35 36 37 38 38 39 39 39 39 40 41 42 43 45 46 47 48 49 50 52 53 53 54 54 55 55 56 56 56 57 58 58 59 59 59 60 60
36 36 36 36 36 36 36 37 38 39 39 40 41 42 42 42 42 42 44 46 47 48 49 51 52 53 54 54 54 55 56 56 57 57 58 58 58 58 58 58 59 59 59
36 37 37 37 37 37 38 38 39 40 40 41 42 43 44 45 46 45 45 47 48 50 51 52 54 55 56 56 56 57 57 57 58 58 58 57 58 58 59 58 59 59 60
37 37 37 38 38 39 39 40 40 41 42 43 44 45 46 47 48 49 48 48 50 51 52 53 55 56 57 57 58 59 59 59 59 58 58 58 59 60 60 60 60 60 61
38 38 39 39 40 40 41 41 42 42 43 44 45 47 48 49 50 51 51 51 51 51 53 55 56 57 58 58 59 60 60 59 59 59 59 59 59 60 59 60 61 61 62
39 39 40 41 41 42 42 43 43 44 44 45 46 48 49 50 51 52 53 52 52 52 53 54 56 58 59 59 60 59 59 59 60 60 59 60 60 60 60 61 61 61 61
40 41 41 42 42 43 43 44 44 44 45 46 47 48 49 50 51 52 53 53 53 53 53 54 56 58 59 59 59 59 59 59 59 59 59 60 61 61 61 60 59 59 58
42 42 42 43 43 43 44 44 45 45 46 46 47 49 50 50 51 52 52 53 55 55 54 55 57 58 58 58 58 58 59 58 58 59 60 60 61 59 58 57 56 54 53
43 43 44 44 44 44 44 44 45 45 46 47 48 48 49 50 51 51 52 54 55 57 57 56 57 57 57 57 57 58 58 58 58 59 59 58 57 55 55 53 52 50 49
43 44 44 44 44 44 45 45 45 46 46 47 48 49 49 50 50 51 53 54 56 58 59 57 57 56 56 56 57 57 57 56 56 56 55 55 53 52 51 50 49 48 48
43 44 44 44 44 44 44 45 45 46 46 47 48 49 50 50 51 52 53 54 55 57 58 57 55 55 56 56 55 55 54 54 54 53 52 50 49 48 48 47 47 47 46
43 43 44 44 43 43 43 44 45 46 46 47 48 49 50 50 51 52 53 54 55 56 56 57 55 55 54 54 53 52 51 50 50 49 48 47 45 46 46 45 44 44 43
42 42 42 43 43 43 43 44 45 45 46 48 49 50 50 50 51 52 52 53 54 55 55 55 54 53 51 51 50 49 47 46 46 46 45 44 42 42 41 40 39 39 38
42 42 42 42 42 43 43 44 45 45 46 47 48 49 49 50 51 52 52 53 53 54 54 53 51 49 48 47 46 46 45 44 43 43 42 40 38 37 36 36 35 35 34
41 41 41 42 42 43 43 44 45 46 47 48 49 49 49 50 51 51 51 52 53 53 51 50 48 47 45 45 45 44 44 42 41 40 38 35 34 33 33 33 33 32 31
40 40 40 41 42 43 44 44 45 47 48 48 49 49 49 50 50 50 50 50 51 50 48 47 46 44 44 44 43 42 41 40 38 37 34 32 31 32 32 32 31 29 28
39 39 40 41 42 43 44 44 45 47 48 48 49 49 49 48 48 48 47 47 47 46 45 44 43 43 42 42 40 39 38 37 35 34 32 30 28 29 30 29 28 26 25
39 40 40 41 41 42 43 44 46 46 47 47 48 48 47 46 46 46 46 46 45 42 41 41 40 40 40 39 37 37 37 35 32 31 30 28 27 27 27 26 25 24 22
40 40 40 40 41 42 44 45 46 46 46 46 45 44 44 44 44 44 44 43 40 38 38 37 37 38 37 36 36 35 35 33 31 28 27 27 26 25 23 23 23 21 19

GEFSMA_500_meanwind_234.txt.gz
Wind_Speed
26 26 27 26 27 27 27 27 28 28 28 29 29 29 30 30 31 31 32 33 33 33 34 34 34 34 35 35 36 36 37 38 38 39 40 41 42 42 43 43 43 44 44
28 28 28 28 28 28 28 29 29 29 30 30 31 31 31 32 32 33 34 34 35 35 35 35 36 36 37 37 37 38 39 39 40 41 43 43 44 45 46 46 46 46 46
29 29 29 30 30 30 30 30 30 31 31 32 32 32 33 34 34 35 35 36 36 36 36 37 38 38 39 39 40 40 41 42 43 44 45 46 47 47 48 48 49 49 49
30 30 30 31 31 32 31 32 32 32 32 33 33 34 34 35 35 36 36 37 37 37 38 38 39 40 41 41 42 43 44 45 45 46 47 48 49 49 50 50 51 51 51
31 32 31 32 32 32 32 33 33 33 34 34 34 35 35 35 36 36 37 37 38 38 39 40 41 42 43 43 44 45 46 47 48 49 50 50 51 51 51 52 52 52 53
32 32 32 32 33 33 33 34 34 35 35 35 35 36 36 36 37 37 38 38 39 40 40 41 42 43 44 45 46 47 49 50 50 51 52 52 52 52 53 53 54 54 55
34 33 33 34 35 35 35 35 36 36 36 36 37 37 37 38 38 38 39 39 40 41 41 43 44 45 46 47 48 49 50 51 52 53 53 53 53 54 55 55 56 56 56
35 35 35 36 36 36 37 37 37 38 38 38 38 38 38 38 39 39 40 41 41 42 43 44 46 47 48 49 49 50 51 52 53 54 55 55 55 56 57 57 57 57 57
36 36 37 37 37 37 38 38 38 38 38 38 38 39 40 40 40 40 42 42 43 44 45 46 47 49 49 50 51 52 53 54 55 56 56 56 55 56 56 57 57 58 59
37 38 37 37 37 38 38 38 39 39 39 39 39 40 41 42 42 42 42 44 45 45 47 48 49 50 51 51 52 53 54 55 56 56 56 56 57 57 57 57 58 59 59
38 38 38 38 38 38 39 39 39 40 40 41 41 41 42 43 44 43 43 44 45 46 48 49 50 51 52 53 54 55 56 57 57 57 57 57 57 57 57 58 59 60 60
38 38 38 39 39 39 39 40 40 40 41 41 41 42 43 44 44 44 45 45 45 46 48 49 51 51 52 53 55 56 57 58 58 57 57 58 58 58 58 59 59 60 60
39 39 39 39 39 39 40 40 40 40 41 42 42 43 44 44 45 45 46 46 46 47 48 50 50 51 53 54 55 56 57 57 57 57 58 58 58 58 59 59 60 60 60
40 40 40 40 39 40 40 40 40 41 42 43 43 44 44 45 46 47 47 48 48 49 49 50 50 52 53 54 55 55 55 56 56 57 58 59 58 58 58 59 59 59 57
40 40 40 40 40 40 40 40 41 42 43 43 44 45 45 46 47 48 49 50 51 50 49 50 51 52 53 54 55 55 55 56 57 57 58 58 58 57 57 57 56 54 52
40 40 40 40 40 40 40 41 42 43 44 44 45 45 46 46 47 48 49 50 51 51 50 50 51 53 54 54 55 55 56 57 57 57 57 56 55 54 54 53 52 50 48
41 40 40 40 40 41 41 42 42 43 44 44 45 46 46 47 47 48 49 50 50 51 51 51 52 53 54 54 54 55 55 56 56 55 54 52 51 51 50 49 48 46 46
40 40 40 40 40 41 41 42 43 43 44 44 45 45 46 46 47 48 49 50 50 51 51 52 52 53 53 53 54 54 54 54 53 52 50 49 49 48 47 46 44 43 44
40 40 40 41 41 41 42 42 43 44 44 44 44 44 45 46 46 48 48 49 50 51 52 52 52 52 52 52 53 53 53 53 51 49 48 47 47 46 44 42 41 41 42
40 40 41 41 41 42 42 42 43 43 44 43 43 44 44 45 46 47 48 49 49 50 51 51 51 51 51 51 51 51 51 49 47 46 45 45 43 42 41 40 39 38 37
41 41 41 41 41 41 41 42 43 42 42 42 43 43 44 45 46 47 48 48 49 49 49 49 49 49 49 49 49 49 48 45 43 43 42 40 39 39 39 37 36 34 33
40 41 40 40 40 40 40 41 41 41 41 42 42 43 44 45 46 47 47 47 48 48 48 48 48 48 48 48 47 46 45 43 41 40 39 38 37 37 36 34 33 31 30
39 40 40 40 40 40 40 40 41 41 42 42 43 44 45 45 45 45 45 46 46 47 47 47 47 46 46 45 44 43 42 41 40 39 37 35 35 34 33 32 30 28 27
38 39 39 39 40 40 41 41 41 41 42 42 43 45 45 45 44 45 45 45 45 46 46 45 45 44 43 43 42 41 40 38 37 36 35 34 33 31 31 29 28 26 25
38 38 39 39 40 41 41 41 42 42 42 42 43 44 44 44 44 45 45 44 44 44 43 43 42 41 41 41 40 38 37 35 34 34 34 33 31 29 28 27 27 26 24
38 39 39 39 40 40 40 41 41 42 42 43 44 44 43 44 44 44 44 43 43 42 41 40 39 39 38 37 36 35 35 35 34 33 32 31 30 28 26 26 25 24 23

GEFSMA_500_meanwind_240.txt.gz
Wind_Speed
27 27 26 26 26 26 27 28 28 28 28 28 29 29 30 30 30 31 32 32 32 33 33 34 34 34 35 35 35 36 37 37 38 38 39 40 40 40 41 41 42 42 43
28 28 27 27 27 28 28 28 29 29 30 30 30 31 31 31 32 32 33 34 34 35 35 35 36 36 36 37 37 38 38 39 40 41 41 41 42 42 43 43 44 44 45
29 29 28 28 28 29 30 30 30 30 31 31 32 32 32 33 33 33 34 35 35 36 37 37 37 38 38 38 39 39 40 41 41 42 42 43 44 44 44 45 45 45 46
30 30 29 29 30 30 31 31 31 32 32 33 33 33 33 34 35 35 35 36 36 37 38 38 38 39 39 39 40 41 41 42 42 43 44 45 45 46 46 46 47 47 48
31 31 30 30 31 31 32 32 32 33 33 34 34 34 35 35 36 36 36 37 37 38 39 40 40 40 40 41 42 43 43 43 44 45 45 46 47 47 48 48 49 49 50
32 32 31 32 32 32 33 33 33 34 34 34 34 35 35 36 36 37 37 38 38 39 39 40 41 41 42 43 44 45 45 45 46 47 47 47 48 49 50 50 51 51 51
33 33 33 33 34 33 34 34 34 35 35 35 35 35 36 36 37 38 38 39 39 40 40 41 42 43 43 44 46 46 47 48 48 49 49 49 50 50 51 52 52 52 52
34 34 34 35 34 35 35 35 35 36 36 36 36 37 37 37 37 38 39 40 40 41 42 43 44 44 45 46 47 48 48 49 50 50 51 52 52 53 53 53 54 54 54
36 35 35 35 35 35 35 35 36 36 36 37 37 38 38 38 38 38 40 41 42 43 43 44 45 46 47 48 48 49 50 51 52 53 53 53 54 54 54 55 55 55 56
36 35 35 35 36 35 36 36 36 37 37 38 38 39 40 40 41 40 41 42 43 44 45 45 46 47 49 49 50 51 52 53 54 54 54 54 54 55 55 56 56 57 57
37 36 36 36 36 36 36 36 37 38 39 39 39 40 40 41 42 42 42 42 43 44 45 46 47 48 49 50 51 52 53 53 53 54 54 54 55 56 56 57 57 58 58
37 37 36 37 37 37 37 37 39 39 39 40 40 41 41 42 43 43 43 43 43 43 44 46 47 48 49 50 51 51 52 52 53 54 54 55 56 57 57 58 58 58 58
38 37 37 37 37 37 38 38 39 39 40 40 41 42 42 43 43 43 44 43 43 43 44 45 46 48 49 49 50 50 51 52 53 53 53 54 56 57 58 58 58 58 58
38 38 38 38 37 37 38 39 39 40 40 41 41 42 42 42 43 43 44 44 43 43 44 45 46 47 48 48 49 50 51 52 53 53 54 55 55 56 57 58 58 58 56
38 38 39 39 38 38 39 39 40 40 41 41 41 41 41 42 42 43 44 44 45 44 44 45 46 47 47 48 50 50 51 52 52 53 54 55 55 56 56 56 55 54 51
40 39 39 39 39 40 40 40 40 40 40 41 40 40 41 41 42 42 43 44 45 45 45 46 47 47 47 48 49 50 51 51 52 53 54 55 55 55 54 53 51 48 47
40 40 40 40 40 40 40 40 40 40 40 40 40 40 40 40 41 42 43 44 45 46 46 46 47 47 47 48 48 49 50 51 51 52 53 53 53 52 51 48 46 45 43
41 40 40 40 40 40 40 40 40 40 40 40 39 39 40 40 41 42 43 44 46 47 47 46 46 47 47 47 48 49 49 50 51 52 52 51 50 48 47 45 44 42 41
41 41 41 40 40 39 39 40 39 39 40 40 39 39 40 41 42 43 44 45 46 47 47 47 47 47 47 48 49 49 49 50 51 51 50 49 47 45 43 42 41 41 40
42 41 41 41 40 39 39 39 39 39 39 39 40 40 41 42 43 43 44 45 46 47 47 47 47 47 48 48 49 49 49 50 50 49 47 45 44 42 41 40 40 39 39
41 41 41 40 40 39 39 38 38 38 38 39 40 41 41 42 43 44 45 47 47 47 47 47 47 48 49 49 49 49 50 49 47 45 42 42 41 41 40 39 38 37 36
39 39 39 39 39 38 38 38 38 38 39 39 40 41 42 43 44 45 47 47 47 47 47 48 48 49 49 49 49 49 49 46 43 41 40 39 39 39 39 38 37 36 35
38 37 38 38 38 38 38 39 38 39 39 40 40 41 42 43 44 45 46 46 47 47 47 48 48 48 48 48 48 47 45 42 40 39 38 37 38 38 36 36 35 34 33
37 37 37 37 38 38 38 39 39 39 40 41 41 42 43 44 44 45 45 45 46 46 46 47 47 47 46 46 45 43 40 38 38 38 38 37 36 35 34 34 32 31 30
37 37 37 37 37 38 38 39 39 40 40 41 41 42 43 44 45 45 45 45 45 45 45 45 46 45 44 43 41 39 37 36 36 36 36 36 34 32 32 32 30 29 28
36 36 36 36 37 37 38 38 39 40 41 41 42 42 43 44 44 44 45 45 44 44 43 43 43 42 41 39 37 36 35 36 36 35 34 34 32 30 28 28 28 26 26

GEFSMA_500_meanwind_246.txt.gz
Wind_Speed
27 27 27 26 26 26 25 25 25 26 26 27 28 28 29 29 30 30 31 31 32 33 33 34 34 35 36 36 37 38 38 38 39 39 39 39 39 40 40 41 41 41 42
29 29 28 27 27 27 26 26 26 27 28 28 29 30 30 30 31 31 32 33 33 34 34 35 35 36 37 38 38 39 39 40 40 40 41 41 42 42 43 43 43 44 44
31 30 30 29 28 28 28 28 28 29 29 29 30 30 31 32 32 33 33 34 34 35 35 36 36 37 38 39 40 40 41 41 41 42 43 43 44 44 45 46 46 46 47
32 32 31 30 30 30 30 29 29 30 30 31 31 31 32 32 33 34 34 35 35 36 36 37 38 38 39 40 41 42 42 42 43 44 44 45 46 46 47 48 48 49 49
33 33 32 31 31 30 31 31 31 31 31 32 32 32 33 34 34 34 35 36 36 37 37 38 39 39 41 42 42 43 43 44 45 45 46 47 48 48 49 50 50 50 51
34 34 33 32 32 31 31 31 32 32 33 33 33 33 34 34 35 36 36 37 37 38 38 39 40 41 42 43 43 44 45 45 46 47 48 49 49 50 51 51 52 52 52
35 34 34 34 33 33 33 33 33 34 34 34 34 34 34 35 35 36 37 38 39 39 40 41 42 42 43 43 44 44 45 46 47 48 49 50 51 52 52 53 53 53 52
36 35 35 35 34 34 34 34 34 34 35 35 35 35 35 36 36 37 38 39 40 41 42 42 42 43 44 44 45 46 47 47 48 50 50 51 52 53 53 53 53 53 54
37 36 36 35 35 35 35 35 35 35 35 36 36 36 37 37 37 37 38 40 41 42 42 42 42 43 44 45 46 47 47 48 49 50 50 51 52 52 52 52 53 53 54
39 38 37 36 36 36 35 35 36 36 36 37 37 38 38 38 38 38 39 40 41 41 42 42 42 43 44 45 46 47 48 49 49 49 50 51 51 51 52 52 52 52 52
40 39 38 38 37 36 36 36 37 37 37 37 38 38 38 39 40 40 40 40 40 41 41 42 42 43 44 45 46 47 48 48 48 49 49 50 50 50 50 51 51 51 51
41 40 40 39 38 37 37 37 37 37 38 38 38 39 40 40 41 41 40 39 39 39 40 42 43 43 44 45 46 47 48 47 48 48 48 48 48 49 50 50 50 50 50
41 41 41 39 38 38 38 38 37 37 38 38 39 39 40 40 40 40 40 39 38 39 40 42 43 44 44 45 46 47 46 47 47 48 47 47 48 49 49 49 49 49 50
41 41 40 39 38 38 38 38 38 38 38 38 38 39 40 40 40 40 40 40 39 39 40 42 43 44 45 46 47 46 47 47 47 47 47 48 49 49 49 48 49 49 49
41 41 40 39 38 38 38 38 38 38 39 39 39 39 40 40 40 40 40 41 40 40 40 41 43 44 46 46 46 47 47 47 47 48 48 49 49 48 48 48 48 48 47
42 41 40 39 39 38 38 38 38 38 39 39 40 40 40 39 39 40 40 41 41 41 41 42 43 44 46 46 46 47 47 47 48 49 49 49 48 48 48 48 47 46 45
43 42 41 40 39 39 39 39 39 40 40 40 40 40 39 39 39 39 40 40 41 42 43 43 44 45 46 46 47 47 48 49 49 49 49 49 48 48 48 47 45 44 42
42 42 41 40 40 39 40 40 39 39 39 40 40 40 39 39 39 39 40 40 41 43 43 43 44 46 46 46 47 48 49 49 49 49 49 49 48 48 47 45 43 42 41
43 43 42 41 41 41 40 39 39 39 39 40 40 39 39 39 39 40 40 41 42 43 44 44 45 46 46 47 47 48 48 49 49 50 50 49 48 47 45 43 42 41 41
43 42 42 41 41 41 40 40 40 39 39 39 39 39 39 39 40 40 41 42 42 43 44 45 46 46 47 47 48 48 48 48 48 48 48 48 46 45 43 42 42 41 41
42 42 42 41 41 40 40 41 41 40 40 39 39 38 39 39 40 40 41 42 42 43 45 46 46 47 47 47 48 48 48 47 47 47 46 45 44 43 42 41 41 40 39
42 41 40 41 41 40 40 40 40 40 39 39 39 39 39 40 40 40 41 42 43 44 45 46 46 47 47 48 48 48 48 47 44 44 43 41 41 41 40 40 39 39 37
41 41 40 40 39 39 39 39 39 39 39 39 39 39 39 39 40 40 42 43 43 44 45 46 47 47 47 47 47 47 46 44 42 41 40 39 39 39 38 38 37 36 34
41 40 39 39 38 37 37 38 38 38 38 39 39 39 39 39 40 40 41 42 44 45 45 45 47 47 47 46 46 45 43 41 40 39 38 38 37 37 36 35 35 33 32
40 39 38 38 37 37 37 37 37 37 37 38 38 39 39 40 40 41 42 43 44 44 44 45 46 46 45 45 44 42 40 38 36 36 37 36 34 34 34 33 32 31 30
39 38 38 37 37 37 37 37 37 37 37 38 38 39 39 40 40 41 42 43 43 43 44 44 44 44 44 42 41 39 37 35 34 35 34 33 33 32 30 30 30 29 28

GEFSMA_500_meanwind_252.txt.gz
Wind_Speed
29 28 28 28 27 27 26 26 26 26 26 26 27 27 27 28 28 29 30 30 31 32 32 33 34 35 35 36 37 38 38 39 39 39 40 40 41 41 41 42 42 43 43
31 30 30 30 29 28 28 28 27 27 27 28 28 28 28 29 30 30 31 32 32 33 34 35 35 36 36 37 38 39 40 40 41 41 42 42 42 43 43 44 44 45 45
33 32 32 31 31 30 29 29 29 29 29 29 30 30 30 30 31 32 33 33 34 34 35 36 36 36 37 38 39 40 41 42 42 43 43 44 44 45 45 46 46 47 47
35 34 33 33 32 32 31 30 30 30 30 31 31 30 31 31 32 33 34 35 35 36 36 36 37 38 39 40 40 41 42 43 43 43 44 45 45 46 46 47 48 49 50
35 35 35 35 34 33 32 32 32 32 32 32 32 32 32 33 33 34 34 35 36 36 36 37 38 39 40 40 41 41 42 43 43 44 45 46 47 48 48 49 50 50 51
36 35 35 35 35 34 34 34 34 34 34 34 34 34 34 34 35 35 36 36 36 37 37 38 39 40 41 41 41 42 42 43 44 45 46 47 48 49 50 50 50 50 51
37 36 36 36 35 35 35 35 35 35 34 35 35 36 36 36 36 36 36 37 37 38 39 40 40 41 41 41 42 43 43 44 45 46 47 48 48 49 49 50 50 50 51
38 37 36 35 35 36 36 35 36 36 36 36 36 36 36 36 37 37 37 38 38 39 40 41 41 41 41 42 43 43 44 44 45 47 47 47 47 48 49 49 50 50 50
39 38 37 36 36 36 36 36 36 36 37 37 37 37 37 37 37 37 38 39 39 40 40 40 41 42 42 43 44 44 44 45 46 47 47 47 48 48 49 49 49 49 48
39 39 38 37 37 37 37 37 37 37 37 37 37 38 38 39 38 38 38 39 39 40 41 41 42 42 42 43 44 44 45 46 47 47 48 48 48 49 49 49 48 47 46
38 38 38 38 38 39 39 38 37 38 38 38 38 38 38 38 39 38 38 38 39 40 41 42 42 42 42 43 44 45 46 47 47 48 48 48 48 49 49 48 47 46 45
39 38 39 39 39 40 39 39 38 38 38 38 38 38 39 39 39 39 39 39 39 40 41 42 42 42 42 43 44 45 46 47 47 48 48 48 48 48 48 48 47 46 46
42 41 41 40 40 40 40 39 38 38 38 38 39 39 39 39 39 40 40 40 40 40 41 42 43 43 43 44 44 45 46 47 48 48 49 49 49 48 48 47 47 47 48
43 43 42 41 41 40 40 39 39 39 39 39 39 39 40 40 40 41 41 41 41 41 41 42 42 43 44 45 45 46 47 48 49 49 49 50 49 48 48 48 49 49 49
44 43 43 42 41 40 39 39 39 39 39 39 39 39 40 40 41 41 42 42 42 42 41 42 43 44 45 45 46 47 48 50 50 49 50 50 49 49 49 50 49 50 50
44 44 44 43 42 41 40 40 40 40 39 39 39 39 40 41 41 41 42 42 42 42 42 42 43 44 45 46 47 48 49 50 50 51 52 51 51 50 51 51 50 50 49
44 44 43 42 42 42 41 41 40 40 40 40 40 40 40 41 42 42 42 42 42 42 42 41 42 43 45 46 47 49 50 50 51 52 52 52 51 51 51 49 48 47 45
44 43 42 42 41 41 41 41 40 41 40 40 40 41 41 41 41 41 41 41 41 41 42 41 42 44 45 46 48 49 50 51 52 53 52 52 51 50 48 46 44 43 43
44 43 43 42 41 41 41 40 40 40 40 40 40 40 40 40 41 40 40 40 41 41 41 42 42 44 45 46 48 49 49 51 52 52 51 49 48 46 44 43 43 42 41
43 43 42 42 42 41 41 40 39 39 39 38 38 39 40 40 39 39 40 40 41 41 42 42 43 44 45 47 48 48 49 50 49 48 47 45 43 43 42 43 42 41 39
43 42 42 42 42 41 41 41 40 40 39 39 39 39 39 39 39 39 40 40 41 42 42 42 43 43 45 47 48 49 49 47 45 44 42 42 41 41 42 41 40 40 39
43 43 42 42 41 41 40 40 40 40 40 40 39 39 39 38 38 39 40 40 40 41 42 42 43 44 46 48 48 48 47 44 41 41 40 41 42 42 42 41 40 39 38
43 42 42 42 41 40 40 40 39 40 39 38 38 38 37 38 38 39 39 40 40 41 41 43 44 46 47 48 47 45 43 41 40 40 41 41 42 41 40 39 38 37 36
42 42 42 41 41 41 41 41 39 39 38 38 37 37 37 39 39 39 39 39 39 40 42 44 45 46 46 46 44 43 40 40 41 42 41 40 39 39 38 38 37 35 34
42 41 41 41 40 39 39 39 38 37 37 37 36 36 37 38 38 39 39 39 40 41 42 44 45 45 44 43 42 41 40 40 40 40 39 39 37 36 35 35 34 33 31
41 41 41 40 40 39 39 39 38 36 36 36 36 36 36 37 38 39 40 40 40 41 42 43 42 42 42 41 41 40 40 40 39 39 38 37 36 34 32 31 31 30 29